Stündliche Wetter Jungapeo

Heute, 3 März, Mittwoch

Zeit Temperatur Niederschläge Wind Luftdruck Luftfeuchtigkeit
00:00 +19°C° 0 mm 1 m/S 637 mmHg 60%
01:00 +19°C° 0 mm 1 m/S 636 mmHg 61%
02:00 +18°C° 0 mm 1 m/S 636 mmHg 63%
03:00 +18°C° 0 mm 1 m/S 636 mmHg 65%
04:00 +18°C° 0 mm 1 m/S 636 mmHg 66%
05:00 +16°C° 0 mm 1 m/S 636 mmHg 68%
06:00 +20°C° 0 mm 1 m/S 638 mmHg 59%
07:00 +23°C° 0 mm 1 m/S 639 mmHg 50%
08:00 +24°C° 0 mm 0 m/S 640 mmHg 41%
09:00 +28°C° 0 mm 1 m/S 640 mmHg 36%
10:00 +30°C° 0 mm 2 m/S 640 mmHg 31%
11:00 +31°C° 0 mm 3 m/S 640 mmHg 26%
12:00 +33°C° 0 mm 3 m/S 640 mmHg 26%
13:00 +33°C° 0 mm 3 m/S 639 mmHg 25%
14:00 +33°C° 0 mm 3 m/S 638 mmHg 25%
15:00 +31°C° 0 mm 3 m/S 637 mmHg 27%
16:00 +30°C° 0 mm 2 m/S 637 mmHg 29%
17:00 +29°C° 0 mm 2 m/S 637 mmHg 31%
18:00 +26°C° 0 mm 2 m/S 637 mmHg 36%
19:00 +24°C° 0 mm 1 m/S 637 mmHg 40%
20:00 +22°C° 0 mm 1 m/S 637 mmHg 45%
21:00 +21°C° 0 mm 1 m/S 638 mmHg 47%
22:00 +21°C° 0 mm 1 m/S 638 mmHg 49%
23:00 +20°C° 0 mm 1 m/S 638 mmHg 51%

Morgen, 4 März, Donnerstag

Zeit Temperatur Niederschläge Wind Luftdruck Luftfeuchtigkeit
00:00 +20°C° 0 mm 1 m/S 638 mmHg 52%
01:00 +19°C° 0 mm 1 m/S 637 mmHg 54%
02:00 +18°C° 0 mm 1 m/S 637 mmHg 56%
03:00 +18°C° 0 mm 1 m/S 637 mmHg 57%
04:00 +18°C° 0 mm 1 m/S 637 mmHg 58%
05:00 +18°C° 0 mm 1 m/S 637 mmHg 59%
06:00 +20°C° 0 mm 1 m/S 638 mmHg 51%
07:00 +23°C° 0 mm 1 m/S 639 mmHg 43%
08:00 +24°C° 0 mm 0 m/S 641 mmHg 36%
09:00 +28°C° 0 mm 1 m/S 641 mmHg 31%
10:00 +30°C° 0 mm 2 m/S 641 mmHg 26%
11:00 +32°C° 0 mm 2 m/S 641 mmHg 22%
12:00 +33°C° 0 mm 3 m/S 640 mmHg 21%
13:00 +33°C° 0 mm 3 m/S 639 mmHg 21%
14:00 +34°C° 0 mm 3 m/S 638 mmHg 21%
15:00 +33°C° 0 mm 3 m/S 637 mmHg 22%
16:00 +30°C° 0 mm 2 m/S 637 mmHg 24%
17:00 +29°C° 0 mm 2 m/S 636 mmHg 25%
18:00 +26°C° 0 mm 2 m/S 636 mmHg 29%
19:00 +24°C° 0 mm 2 m/S 636 mmHg 34%
20:00 +20°C° 0 mm 2 m/S 636 mmHg 38%
21:00 +20°C° 0 mm 2 m/S 636 mmHg 39%
22:00 +19°C° 0 mm 2 m/S 637 mmHg 39%
23:00 +19°C° 0 mm 2 m/S 637 mmHg 40%

übermorgen, 5 März, Freitag

Zeit Temperatur Niederschläge Wind Luftdruck Luftfeuchtigkeit
00:00 +20°C° 0 mm 1 m/S 636 mmHg 41%
01:00 +19°C° 0 mm 1 m/S 636 mmHg 42%
02:00 +19°C° 0 mm 1 m/S 636 mmHg 43%
03:00 +19°C° 0 mm 1 m/S 636 mmHg 43%
04:00 +19°C° 0 mm 1 m/S 636 mmHg 44%
05:00 +18°C° 0 mm 1 m/S 636 mmHg 45%
06:00 +21°C° 0 mm 1 m/S 637 mmHg 39%
07:00 +24°C° 0 mm 1 m/S 638 mmHg 33%
08:00 +25°C° 0 mm 0 m/S 639 mmHg 26%
09:00 +29°C° 0 mm 1 m/S 639 mmHg 24%
10:00 +31°C° 0 mm 2 m/S 639 mmHg 21%
11:00 +34°C° 0 mm 3 m/S 639 mmHg 18%
12:00 +34°C° 0 mm 3 m/S 638 mmHg 18%
13:00 +34°C° 0 mm 3 m/S 637 mmHg 18%
14:00 +35°C° 0 mm 3 m/S 636 mmHg 18%
15:00 +33°C° 0 mm 3 m/S 636 mmHg 19%
16:00 +31°C° 0 mm 2 m/S 635 mmHg 21%
17:00 +30°C° 0 mm 2 m/S 635 mmHg 23%
18:00 +27°C° 0 mm 2 m/S 635 mmHg 27%
19:00 +24°C° 0 mm 2 m/S 635 mmHg 32%
20:00 +20°C° 0 mm 2 m/S 635 mmHg 36%
21:00 +20°C° 0 mm 2 m/S 635 mmHg 37%
22:00 +20°C° 0 mm 1 m/S 636 mmHg 38%
23:00 +20°C° 0 mm 1 m/S 636 mmHg 39%

6 März, Samstag

Zeit Temperatur Niederschläge Wind Luftdruck Luftfeuchtigkeit
00:00 +19°C° 0 mm 1 m/S 636 mmHg 40%
01:00 +19°C° 0 mm 1 m/S 636 mmHg 41%
02:00 +19°C° 0 mm 1 m/S 635 mmHg 42%
03:00 +17°C° 0 mm 2 m/S 635 mmHg 45%
04:00 +17°C° 0 mm 2 m/S 635 mmHg 49%
05:00 +16°C° 0 mm 2 m/S 635 mmHg 52%
06:00 +20°C° 0 mm 1 m/S 637 mmHg 46%
07:00 +23°C° 0 mm 1 m/S 638 mmHg 41%
08:00 +23°C° 0 mm 0 m/S 640 mmHg 36%
09:00 +27°C° 0 mm 1 m/S 640 mmHg 31%
10:00 +29°C° 0 mm 2 m/S 640 mmHg 26%
11:00 +31°C° 0 mm 3 m/S 640 mmHg 21%
12:00 +33°C° 0 mm 3 m/S 639 mmHg 20%
13:00 +33°C° 0 mm 3 m/S 638 mmHg 19%
14:00 +33°C° 0 mm 3 m/S 637 mmHg 18%
15:00 +31°C° 0 mm 3 m/S 636 mmHg 20%
16:00 +30°C° 0 mm 3 m/S 636 mmHg 21%
17:00 +29°C° 0 mm 2 m/S 636 mmHg 22%
18:00 +26°C° 0 mm 2 m/S 636 mmHg 27%
19:00 +23°C° 0 mm 2 m/S 636 mmHg 32%
20:00 +20°C° 0 mm 2 m/S 636 mmHg 36%
21:00 +19°C° 0 mm 2 m/S 636 mmHg 38%
22:00 +19°C° 0 mm 2 m/S 637 mmHg 40%
23:00 +19°C° 0 mm 1 m/S 637 mmHg 41%

7 März, Sonntag

Zeit Temperatur Niederschläge Wind Luftdruck Luftfeuchtigkeit
00:00 +19°C° 0 mm 1 m/S 637 mmHg 43%
01:00 +19°C° 0 mm 1 m/S 637 mmHg 45%
02:00 +18°C° 0 mm 1 m/S 636 mmHg 47%
03:00 +18°C° 0 mm 1 m/S 637 mmHg 49%
04:00 +16°C° 0 mm 1 m/S 637 mmHg 50%
05:00 +16°C° 0 mm 1 m/S 637 mmHg 52%
06:00 +20°C° 0 mm 1 m/S 638 mmHg 46%
07:00 +23°C° 0 mm 1 m/S 639 mmHg 39%
08:00 +26°C° 0 mm 1 m/S 640 mmHg 32%
09:00 +28°C° 0 mm 1 m/S 640 mmHg 28%
10:00 +30°C° 0 mm 2 m/S 640 mmHg 24%
11:00 +31°C° 0 mm 2 m/S 640 mmHg 20%
12:00 +33°C° 0 mm 3 m/S 640 mmHg 20%
13:00 +33°C° 0 mm 3 m/S 639 mmHg 19%
14:00 +33°C° 0 mm 3 m/S 638 mmHg 18%
15:00 +31°C° 0 mm 3 m/S 638 mmHg 19%
16:00 +30°C° 0 mm 2 m/S 637 mmHg 20%
17:00 +29°C° 0 mm 2 m/S 637 mmHg 22%
18:00 +26°C° 0 mm 2 m/S 637 mmHg 26%
19:00 +23°C° 0 mm 2 m/S 637 mmHg 31%
20:00 +20°C° 0 mm 2 m/S 637 mmHg 35%
21:00 +19°C° 0 mm 2 m/S 638 mmHg 36%
22:00 +20°C° 0 mm 1 m/S 638 mmHg 36%
23:00 +20°C° 0 mm 1 m/S 638 mmHg 37%

8 März, Montag

Zeit Temperatur Niederschläge Wind Luftdruck Luftfeuchtigkeit
00:00 +19°C° 0 mm 1 m/S 638 mmHg 39%
01:00 +19°C° 0 mm 1 m/S 638 mmHg 41%
02:00 +18°C° 0 mm 1 m/S 638 mmHg 43%
03:00 +18°C° 0 mm 1 m/S 638 mmHg 44%
04:00 +18°C° 0 mm 1 m/S 638 mmHg 45%
05:00 +16°C° 0 mm 1 m/S 638 mmHg 46%
06:00 +21°C° 0 mm 1 m/S 639 mmHg 40%
07:00 +24°C° 0 mm 1 m/S 641 mmHg 34%
08:00 +25°C° 0 mm 0 m/S 642 mmHg 28%
09:00 +28°C° 0 mm 1 m/S 642 mmHg 26%
10:00 +30°C° 0 mm 2 m/S 642 mmHg 23%
11:00 +33°C° 0 mm 3 m/S 642 mmHg 20%
12:00 +33°C° 0 mm 3 m/S 641 mmHg 20%
13:00 +34°C° 0 mm 3 m/S 640 mmHg 19%
14:00 +34°C° 0 mm 3 m/S 639 mmHg 19%
15:00 +33°C° 0 mm 3 m/S 639 mmHg 20%
16:00 +31°C° 0 mm 2 m/S 639 mmHg 22%
17:00 +30°C° 0 mm 2 m/S 638 mmHg 23%
18:00 +27°C° 0 mm 2 m/S 638 mmHg 28%
19:00 +24°C° 0 mm 2 m/S 638 mmHg 33%
20:00 +21°C° 0 mm 2 m/S 638 mmHg 38%
21:00 +20°C° 0 mm 2 m/S 638 mmHg 40%
22:00 +20°C° 0 mm 2 m/S 639 mmHg 41%
23:00 +19°C° 0 mm 2 m/S 639 mmHg 42%
Mehr zeigen

Wir brauchen deine Erlaubnis

Meteoprog und unser Service Anbieter werden persönliche Daten aufbewahren, so wie Cookies, Geräte Bezeichnung oder ähnliche Technologien von deinem Gerät und Prozess, so wie Persönliche Daten Inhalte und Werbungen, genauso wie social Media und den Verkehr zu analysieren.

  • Aufbewahrung und/oder Zugang zu deiner Geräte Informationen.

    Cookies, Geräte Bezeichnung oder andere Informationen, können aufbewahrt oder Zugang zu deinem Gerät erhalten, für den Grund, der oben angegeben wird.

  • Personalisierte Werbung und Inhalte, Messungen, Einblick in das Publikum und Produkt Entwicklung.

    Werbungen und Inhalte können personalisiert werden, basierend auf ein Profil. Mehr Daten können besser personalisierte Werbungen und Inhalte hinzufügen. Werbung und Inhalte können gezeigt und gemessen werden. Einblicke über das Publikum, welche die Werbung gesehen haben und den Inhalt, können abgeleitet werden. So wie Daten können genutzt werden, um es zu verbessern oder die Benutzer Erfahrung zu verbessern das System und die Software.

Wenn du “Ich stimme zu” klickst, erlaubst du uns, die Cookies zu benutzen die Geräte Bezeichnung, den Web oder ähnliche Technologien zu benutzen. Deine Settings, können in deinem Gerät bei deinem Browser geändert werden.

Für den bestimmten Zweck, berechtigten Interessen beruhen darauf, mehr als auf den Inhalt. Du kannst mehr darüber in unseren Privaten und Cookie Politik lesen.